Home   Weather   Mesa   Past weeks

Flag for USA Past Weather in Mesa, Arizona, USA — Yesterday and Last 2 Weeks

Now
66 °F

Clear.


Feels Like: 66 °F
Forecast: 65 / 84 °F
Wind: 6 mph from Southeast

Location: Phoenix–Mesa Gateway Airport

Current Time: Apr 28, 2017 at 5:35:47 am

Latest Report: Apr 28, 2017 at 4:50 am


Visibility: 20 mi

Pressure: 29.63 "Hg

Humidity: 40%

Dew Point: 41 °F

Location of MesaLocation

Past Weather in Mesa — Graph

°F

Mesa Temperature Yesterday

Maximum temperature yesterday: 88 °F (at 2:47 pm)
Minimum temperature yesterday: 63 °F (at 3:35 am)
Average temperature yesterday: 74 °F

High & Low Weather Summary for the Past Weeks

 TemperatureHumidityPressure
High97 °F (Apr 23, 3:47 pm)43% (Apr 25, 7:50 am)30.03 "Hg (Apr 25, 7:50 am)
Low54 °F (Apr 16, 4:35 am)6% (Apr 20, 6:47 pm)29.59 "Hg (Apr 27, 6:47 pm)
Average72 °F22%29.84 "Hg
* Reported Apr 13 4:15 am — Apr 28 4:35 am, Mesa, Weather by CustomWeather, © 2017

Note: Actual official high and low records may vary slightly from our data, if they occured in-between our weather recording intervals... More about our weather records

Advertising

Mesa Weather History for the Previous 24 Hours

Scroll right to see more
 ConditionsComfort  
Time TempWeatherWind HumidityBarometerVisibility
4:35 am
Fri, Apr 28
66 °FClear.5 mph40%29.63 "Hg10 mi
4:15 am68 °FClear.5 mph38%29.63 "Hg10 mi
3:55 am68 °FClear.6 mph38%29.61 "Hg10 mi
3:35 am68 °FClear.9 mph40%29.61 "Hg10 mi
3:15 am70 °FClear.6 mph38%29.61 "Hg10 mi
2:55 am72 °FClear.5 mph36%29.61 "Hg10 mi
2:35 am72 °FClear.3 mph38%29.61 "Hg10 mi
2:15 am73 °FClear.8 mph36%29.61 "Hg10 mi
1:55 am73 °FClear.9 mph38%29.60 "Hg10 mi
1:35 am72 °FClear.9 mph41%29.60 "Hg10 mi
12:55 am73 °FClear.10 mph36%29.61 "Hg10 mi
12:35 am73 °FClear.9 mph33%29.61 "Hg10 mi
12:15 am73 °FClear.9 mph29%29.61 "Hg10 mi
10:47 pm
Thu, Apr 27
73 °FPassing clouds.8 mph27%29.61 "Hg45 mi
9:47 pm77 °FPassing clouds.8 mph24%29.61 "Hg20 mi
8:51 pm79 °FPassing clouds.10 mph24%29.61 "Hg20 mi
7:56 pm81 °FPassing clouds.7 mph23%29.61 "Hg20 mi
6:47 pm84 °FPartly sunny.10 mph20%29.59 "Hg45 mi
5:47 pm86 °FPartly sunny.14 mph18%29.60 "Hg45 mi
4:47 pm86 °FPartly sunny.15 mph19%29.60 "Hg45 mi
3:57 pm86 °FPartly sunny.17 mph19%29.60 "Hg35 mi
2:47 pm88 °FPartly sunny.14 mph17%29.63 "Hg35 mi
1:54 pm86 °FScattered clouds.10 mph18%29.64 "Hg30 mi
12:51 pm84 °FPartly sunny.8 mph19%29.66 "Hg20 mi
11:47 am82 °FPartly sunny.9 mph19%29.70 "Hg20 mi
10:47 am79 °FPartly sunny.No wind20%29.72 "Hg45 mi
9:47 am79 °FPartly sunny.6 mph17%29.73 "Hg35 mi
8:47 am73 °FPartly sunny.6 mph25%29.72 "Hg35 mi
7:53 am70 °FPartly sunny.8 mph27%29.72 "Hg30 mi
6:53 am64 °FOvercast.6 mph30%29.71 "Hg30 mi
5:47 am64 °FPartly sunny.8 mph30%29.68 "Hg20 mi
Weather by CustomWeather, © 2017

See weather overviewHow to use our weather pages